Weather History for KPNA - October, 2012

Change the Weather History Date:

Friday, October 19, 2012

  Actual Average (KBPI) Record (KBPI)
Temperature  
Mean Temperature 41 °F 37 °F  
Max Temperature 59 °F 54 °F 71 °F (2003)
Min Temperature 23 °F 20 °F 1 °F (1976)
Degree Days  
Heating Degree Days 24 28  
Month to date heating degree days 463  
Since 1 July heating degree days 1214  
Cooling Degree Days 0 0  
Month to date cooling degree days 0  
Year to date cooling degree days 35  
Moisture  
Dew Point 24 °F    
Average Humidity 58    
Maximum Humidity 93    
Minimum Humidity 22    
Precipitation  
Precipitation 0.00 in 0.01 in 0.17 in (2004)
Month to date precipitation 0.39  
Year to date precipitation 5.83  
Sea Level Pressure  
Sea Level Pressure 30.13 in    
Wind  
Wind Speed 5 mph (WNW)    
Max Wind Speed 23 mph    
Max Gust Speed 32 mph    
Visibility 10 miles    
Events      
T = Trace of Precipitation, MM = Missing Value Source: NWS Daily Summary

Daily Weather History Graph

Daily Weather History Graph

Search for Another Location

Airport or City:

Trip Planner

Search our weather history database for the weather conditions in past years. The results will help you decide how hot, cold, wet, or windy it might be!

Date:

Astronomy

Oct. 19, 2012 Rise Set
Actual Time 7:37 AM MDT 6:29 PM MDT
Civil Twilight 7:09 AM MDT 6:58 PM MDT
Nautical Twilight 6:36 AM MDT 7:31 PM MDT
Astronomical Twilight 6:03 AM MDT 8:03 PM MDT
Moon 12:28 PM MDT (10/19) 10:06 PM MDT (10/19)
Length of Visible Light 11h 48m
Length of Day
10h 51m
Waxing Crescent, 24% of the Moon is Illuminated
Oct 19
Waxing Crescent
Oct 21
First Quarter
Oct 29
Full
Nov 6
Last Quarter
Nov 13
New

Hourly Weather History & Observations

Time (MDT) Temp. Windchill Dew Point Humidity Pressure Visibility Wind Dir Wind Speed Gust Speed Precip Events Conditions
12:15 AM 32.0 °F 26.4 °F 23.0 °F 69% 30.24 in 10.0 mi WNW 5.8 mph - N/A   Mostly Cloudy
12:35 AM 32.0 °F 27.5 °F 23.0 °F 69% 30.24 in 10.0 mi NNW 4.6 mph - N/A   Mostly Cloudy
12:55 AM 28.4 °F - 23.0 °F 80% 30.24 in 10.0 mi Calm Calm - N/A   Overcast
1:15 AM 30.2 °F 21.9 °F 23.0 °F 75% 30.24 in 10.0 mi WNW 9.2 mph - N/A   Mostly Cloudy
1:35 AM 30.2 °F 24.3 °F 23.0 °F 75% 30.24 in 10.0 mi WNW 5.8 mph - N/A   Mostly Cloudy
1:55 AM 28.4 °F - 21.2 °F 74% 30.23 in 10.0 mi Calm Calm - N/A   Mostly Cloudy
2:15 AM 28.4 °F 19.7 °F 23.0 °F 80% 30.24 in 10.0 mi NW 9.2 mph - N/A   Scattered Clouds
2:55 AM 28.4 °F 24.6 °F 23.0 °F 80% 30.24 in 10.0 mi West 3.5 mph - N/A   Mostly Cloudy
3:15 AM 28.4 °F - 21.2 °F 74% 30.24 in 10.0 mi Calm Calm - N/A   Mostly Cloudy
3:35 AM 26.6 °F - 21.2 °F 80% 30.23 in 10.0 mi Calm Calm - N/A   Mostly Cloudy
3:55 AM 26.6 °F 21.2 °F 21.2 °F 80% 30.22 in 10.0 mi NW 4.6 mph - N/A   Mostly Cloudy
4:15 AM 24.8 °F - 21.2 °F 86% 30.21 in 10.0 mi Calm Calm - N/A   Mostly Cloudy
4:35 AM 26.6 °F 22.6 °F 21.2 °F 80% 30.21 in 10.0 mi NW 3.5 mph - N/A   Mostly Cloudy
4:55 AM 26.6 °F 21.2 °F 21.2 °F 80% 30.21 in 10.0 mi WNW 4.6 mph - N/A   Scattered Clouds
5:15 AM 24.8 °F 17.9 °F 21.2 °F 86% 30.20 in 10.0 mi West 5.8 mph - N/A   Scattered Clouds
5:35 AM 24.8 °F 17.9 °F 21.2 °F 86% 30.19 in 10.0 mi West 5.8 mph - N/A   Mostly Cloudy
5:55 AM 24.8 °F 19.1 °F 23.0 °F 93% 30.19 in 10.0 mi WNW 4.6 mph - N/A   Scattered Clouds
6:15 AM 23.0 °F 13.9 °F 21.2 °F 93% 30.19 in 10.0 mi WNW 8.1 mph - N/A   Clear
6:35 AM 26.6 °F 21.2 °F 21.2 °F 80% 30.18 in 10.0 mi West 4.6 mph - N/A   Clear
6:55 AM 26.6 °F 22.6 °F 21.2 °F 80% 30.18 in 10.0 mi West 3.5 mph - N/A   Clear
7:15 AM 23.0 °F 15.8 °F 21.2 °F 93% 30.18 in 10.0 mi WNW 5.8 mph - N/A   Clear
7:55 AM 24.8 °F - 21.2 °F 86% 30.17 in 10.0 mi Calm Calm - N/A   Scattered Clouds
8:15 AM 26.6 °F - 21.2 °F 80% 30.17 in 10.0 mi Calm Calm - N/A   Clear
8:35 AM 28.4 °F - 23.0 °F 80% 30.17 in 10.0 mi Calm Calm - N/A   Clear
8:55 AM 30.2 °F 25.4 °F 23.0 °F 75% 30.18 in 10.0 mi NW 4.6 mph - N/A   Clear
9:15 AM 30.2 °F 26.7 °F 23.0 °F 75% 30.19 in 10.0 mi WNW 3.5 mph - N/A   Clear
9:35 AM 32.0 °F 28.7 °F 24.8 °F 75% 30.18 in 10.0 mi NW 3.5 mph - N/A   Clear
9:55 AM 33.8 °F - 26.6 °F 75% 30.17 in 10.0 mi Calm Calm - N/A   Clear
10:15 AM 35.6 °F - 26.6 °F 70% 30.17 in 10.0 mi Calm Calm - N/A   Clear
10:35 AM 41.0 °F - 28.4 °F 61% 30.16 in 10.0 mi Calm Calm - N/A   Clear
10:55 AM 42.8 °F - 28.4 °F 57% 30.16 in 10.0 mi Calm Calm - N/A   Clear
11:15 AM 44.6 °F - 28.4 °F 53% 30.15 in 10.0 mi Calm Calm - N/A   Clear
11:35 AM 48.2 °F - 28.4 °F 46% 30.13 in 10.0 mi Calm Calm - N/A   Clear
11:55 AM 51.8 °F - 26.6 °F 38% 30.13 in 10.0 mi WNW 3.5 mph - N/A   Clear
12:15 PM 51.8 °F - 24.8 °F 35% 30.13 in 10.0 mi Calm Calm - N/A   Clear
12:35 PM 53.6 °F - 23.0 °F 30% 30.12 in 10.0 mi WNW 9.2 mph - N/A   Clear
1:15 PM 55.4 °F - 23.0 °F 29% 30.09 in 10.0 mi WNW 4.6 mph - N/A   Clear
1:35 PM 57.2 °F - 23.0 °F 27% 30.08 in 10.0 mi West 6.9 mph - N/A   Clear
1:55 PM 57.2 °F - 23.0 °F 27% 30.07 in 10.0 mi WSW 4.6 mph - N/A   Clear
2:15 PM 59.0 °F - 21.2 °F 23% 30.06 in 10.0 mi West 23.0 mph 32.2 mph N/A   Clear
3:15 PM 59.0 °F - 19.4 °F 22% 30.05 in 10.0 mi West 20.7 mph 27.6 mph N/A   Clear
3:35 PM 59.0 °F - 21.2 °F 23% 30.05 in 10.0 mi West 16.1 mph 26.5 mph N/A   Clear
3:55 PM 57.2 °F - 21.2 °F 25% 30.05 in 10.0 mi WNW 16.1 mph - N/A   Clear
4:15 PM 57.2 °F - 23.0 °F 27% 30.04 in 10.0 mi WNW 13.8 mph - N/A   Mostly Cloudy
4:55 PM 55.4 °F - 23.0 °F 29% 30.04 in 10.0 mi WNW 12.7 mph - N/A   Mostly Cloudy
5:15 PM 53.6 °F - 24.8 °F 33% 30.05 in 10.0 mi WNW 9.2 mph 16.1 mph N/A   Mostly Cloudy
5:55 PM 53.6 °F - 23.0 °F 30% 30.04 in 10.0 mi West 12.7 mph - N/A   Scattered Clouds
6:15 PM 51.8 °F - 23.0 °F 33% 30.04 in 10.0 mi West 10.4 mph - N/A   Scattered Clouds
6:35 PM 50.0 °F - 23.0 °F 35% 30.05 in 10.0 mi West 8.1 mph - N/A   Mostly Cloudy
6:55 PM 50.0 °F - 23.0 °F 35% 30.05 in 10.0 mi WNW 8.1 mph - N/A   Overcast
7:15 PM 48.2 °F - 23.0 °F 37% 30.05 in 10.0 mi WNW 11.5 mph - N/A   Overcast
7:35 PM 48.2 °F - 23.0 °F 37% 30.05 in 10.0 mi West 8.1 mph - N/A   Overcast
8:15 PM 46.4 °F 43.5 °F 24.8 °F 43% 30.04 in 10.0 mi WNW 5.8 mph - N/A   Overcast
8:35 PM 46.4 °F 45.2 °F 26.6 °F 46% 30.04 in 10.0 mi WNW 3.5 mph - N/A   Overcast
8:55 PM 44.6 °F - 26.6 °F 49% 30.05 in 10.0 mi Calm Calm - N/A   Overcast
9:15 PM 44.6 °F 43.1 °F 26.6 °F 49% 30.05 in 10.0 mi SSW 3.5 mph - N/A   Overcast
9:55 PM 44.6 °F 42.2 °F 26.6 °F 49% 30.03 in 10.0 mi West 4.6 mph - N/A   Overcast
10:15 PM 44.6 °F 41.4 °F 26.6 °F 49% 30.03 in 10.0 mi West 5.8 mph - N/A   Overcast
10:35 PM 42.8 °F 39.3 °F 26.6 °F 53% 30.03 in 10.0 mi WSW 5.8 mph - N/A   Overcast
10:55 PM 42.8 °F 41.1 °F 26.6 °F 53% 30.02 in 10.0 mi West 3.5 mph - N/A   Overcast
11:15 PM 42.8 °F 41.1 °F 26.6 °F 53% 30.01 in 10.0 mi WSW 3.5 mph - N/A   Overcast
11:35 PM 42.8 °F - 28.4 °F 57% 30.01 in 10.0 mi Calm Calm - N/A   Overcast
11:55 PM 42.8 °F - 26.6 °F 53% 30.01 in 10.0 mi Calm Calm - N/A   Overcast